User: anonymous   Login
Location: Dead Woman Crossing
(43.5369°N, 106.3228°W)
Time: 22:18:57
(UTC+00:00)
Language:

deb Delta 126 - Orbit

View from above orbital plane
View from above orbital plane
View from above satellite
View from above satellite

Ground track
Ground track

The orbit data is extracted from the following two-line orbital elements,

1 10752U 76077AZ  23342.57135122  .00001739  00000-0  58689-2 0  9990
2 10752 101.7194 190.2177 0373076  77.8773 349.8133 12.79815748185267
Epoch (UTC): 08 December 2023 13:42:44
Eccentricity: 0.0373076
inclination: 101.7194°
perigee height: 1054 km
apogee height: 1630 km
right ascension of ascending node: 190.2177°
argument of perigee: 77.8773°
revolutions per day: 12.79815748
mean anomaly at epoch: 349.8133°
orbit number at epoch: 18526

The dashed part of the orbit path shows where the satellite is in the earth's shadow,  

DLR